Location: Unspecified
(8.0670°N, 0.0000°E)
Time: 20:48:34
(UTC+00:00)

ISS - Visible Passes

Search period start: 20 April 2019 00:00
Search period end: 30 April 2019 00:00
Orbit: 408 x 410 km, 51.6° (Epoch: 21 April)

Date Brightness Start Highest point End Pass type
(mag) Time Alt. Az. Time Alt. Az. Time Alt. Az.
20 Apr -1.6 05:13:04 10° S 05:15:48 24° SE 05:18:33 10° ENE visible
21 Apr -0.6 04:24:55 10° SE 04:25:07 10° SE 04:25:19 10° ESE visible
22 Apr -3.8 05:07:42 12° SW 05:10:43 68° NW 05:13:59 10° NNE visible
23 Apr -2.8 04:19:48 40° SE 04:19:59 40° SE 04:23:06 10° NE visible
24 Apr -1.9 05:04:34 14° WNW 05:05:38 16° NW 05:07:45 10° NNW visible
25 Apr -1.9 04:16:24 23° N 04:16:24 23° N 04:17:56 10° NNE visible
